GW1480 Weather Reports


Display with metric or nautical units.
time (UTC)temp
F
wind
direction
speed
MPH
gust
MPH
rain 1hr
in
rain 24hr
in
rain mn
in
humidity
%
barometer
mb
20260902173913 91 176 0.0 0.0 0.00 0.00 0.00 62 1018.9
20260902173324 91 238 0.0 0.0 0.00 0.00 0.00 69 1018.9
20260902172743 91 114 2.0 5.0 0.00 0.00 0.00 64 1018.9
20260902171515 90 231 0.0 0.0 0.00 0.00 0.00 65 1019.3
20260902170937 90 87 3.0 5.0 0.00 0.00 0.00 65 1019.3
20260902165724 90 350 1.0 2.0 0.00 0.00 0.00 68 1019.6
20260902165116 90 305 1.0 2.0 0.00 0.00 0.00 69 1019.6
20260902164509 89 257 0.0 0.0 0.00 0.00 0.00 67 1019.6
20260902163912 89 203 0.0 0.0 0.00 0.00 0.00 75 1019.6
20260902162746 89 239 2.0 5.0 0.00 0.00 0.00 70 1020.3
20260902161510 89 285 0.0 0.0 0.00 0.00 0.00 70 1020.3
20260902160909 88 323 0.0 0.0 0.00 0.00 0.00 73 1019.9
20260902160313 88 14 2.0 5.0 0.00 0.00 0.00 70 1019.9
20260902155109 87 180 0.0 0.0 0.00 0.00 0.00 74 1019.9
20260902154534 87 287 1.0 5.0 0.00 0.00 0.00 73 1020.3
20260902153913 87 355 5.0 7.0 0.00 0.00 0.00 73 1019.9
20260902153343 87 283 0.0 0.0 0.00 0.00 0.00 76 1019.9
20260902152731 88 244 0.0 0.0 0.00 0.00 0.00 79 1020.3
20260902152148 88 354 4.0 5.0 0.00 0.00 0.00 73 1020.3
20260902151521 88 228 0.0 0.0 0.00 0.00 0.00 78 1019.9
20260902150946 87 196 0.0 0.0 0.00 0.00 0.00 72 1019.9
20260902150321 87 300 0.0 0.0 0.00 0.00 0.00 74 1019.9
20260902145706 87 198 3.0 7.0 0.00 0.00 0.00 76 1019.6
20260902145124 86 204 0.0 0.0 0.00 0.00 0.00 73 1019.6
20260902144544 86 216 0.0 0.0 0.00 0.00 0.00 79 1019.6
20260902143925 86 214 0.0 0.0 0.00 0.00 0.00 78 1019.9
20260902143334 85 207 0.0 0.0 0.00 0.00 0.00 77 1019.9
20260902142112 84 257 0.0 0.0 0.00 0.00 0.00 79 1019.9
20260902141510 83 120 0.0 0.0 0.00 0.00 0.00 80 1019.6
20260902140912 83 304 0.0 2.0 0.00 0.00 0.00 80 1019.6
20260902140329 83 310 0.0 0.0 0.00 0.00 0.00 81 1019.6
20260902135749 82 110 0.0 0.0 0.00 0.00 0.00 83 1019.6
20260902135130 81 89 0.0 0.0 0.00 0.00 0.00 83 1019.3
20260902134547 80 215 0.0 0.0 0.00 0.00 0.00 88 1019.6
20260902133947 79 224 0.0 0.0 0.00 0.00 0.00 89 1019.3
20260902132736 76 228 0.0 0.0 0.00 0.00 0.00 93 1019.6
20260902132118 75 79 0.0 0.0 0.00 0.00 0.00 92 1019.6
20260902131515 74 215 0.0 0.0 0.00 0.00 0.00 97 1019.6
20260902130927 73 228 0.0 0.0 0.00 0.00 0.00 99 1019.6
20260902130319 72 233 0.0 0.0 0.00 0.00 0.00 99 1019.6
20260902125725 72 225 0.0 0.0 0.00 0.00 0.00 99 1019.6
20260902125134 71 131 0.0 0.0 0.00 0.00 0.00 99 1019.6
20260902124520 70 185 0.0 0.0 0.00 0.00 0.00 99 1019.6
20260902123920 69 127 0.0 0.0 0.00 0.00 0.00 99 1019.6
20260902123305 68 214 0.0 0.0 0.00 0.00 0.00 99 1019.6
20260902122707 68 7 0.0 0.0 0.00 0.00 0.00 99 1019.6
20260902122147 67 234 0.0 0.0 0.00 0.00 0.00 99 1019.6
20260902120946 66 274 0.0 0.0 0.00 0.00 0.00 99 1019.6
20260902115705 66 235 0.0 0.0 0.00 0.00 0.00 99 1019.6
20260902115128 66 238 0.0 0.0 0.00 0.00 0.00 99 1019.6
20260902114505 66 238 0.0 0.0 0.00 0.00 0.00 99 1019.3
20260902113332 67 238 0.0 0.0 0.00 0.00 0.00 99 1019.3
20260902112750 67 248 0.0 0.0 0.00 0.00 0.00 99 1019.3
20260902112137 67 243 0.0 0.0 0.00 0.00 0.00 99 1019.3
20260902111520 67 235 0.0 0.0 0.00 0.00 0.00 99 1019.3
20260902110317 66 226 0.0 0.0 0.00 0.00 0.00 99 1018.9
20260902105722 66 216 0.0 0.0 0.00 0.00 0.00 99 1018.9
20260902105120 66 233 0.0 0.0 0.00 0.00 0.00 99 1018.9
20260902104535 66 230 0.0 0.0 0.00 0.00 0.00 99 1019.3
20260902103327 66 236 0.0 0.0 0.00 0.00 0.00 99 1018.9
20260902101523 66 234 0.0 0.0 0.00 0.00 0.00 99 1018.9
20260902100905 66 234 0.0 0.0 0.00 0.00 0.00 99 1019.3
20260902100346 67 237 0.0 0.0 0.00 0.00 0.00 99 1018.9
20260902095748 67 238 0.0 0.0 0.00 0.00 0.00 99 1019.3
20260902095132 67 238 0.0 0.0 0.00 0.00 0.00 99 1018.9
20260902094531 67 236 0.0 0.0 0.00 0.00 0.00 99 1018.9
20260902093304 67 236 0.0 0.0 0.00 0.00 0.00 99 1018.9
20260902092739 67 236 0.0 0.0 0.00 0.00 0.00 99 1018.9
20260902092147 67 236 0.0 0.0 0.00 0.00 0.00 99 1018.9
20260902091507 67 238 0.0 0.0 0.00 0.00 0.00 99 1018.9
20260902090925 67 235 0.0 0.0 0.00 0.00 0.00 99 1018.9
20260902090321 68 235 0.0 0.0 0.00 0.00 0.00 99 1018.9
20260902085744 68 235 0.0 0.0 0.00 0.00 0.00 99 1018.6
20260902085148 68 236 0.0 0.0 0.00 0.00 0.00 99 1018.9
20260902084508 68 234 0.0 0.0 0.00 0.00 0.00 99 1018.6
20260902083909 68 239 0.0 0.0 0.00 0.00 0.00 99 1018.6
20260902082108 68 230 0.0 0.0 0.00 0.00 0.00 99 1018.6
20260902081539 68 230 0.0 0.0 0.00 0.00 0.00 99 1018.6
20260902080323 68 243 0.0 0.0 0.00 0.00 0.00 99 1018.6
20260902075708 68 234 0.0 0.0 0.00 0.00 0.00 99 1018.2
20260902075114 69 237 0.0 0.0 0.00 0.00 0.00 99 1018.6
20260902074519 69 226 0.0 0.0 0.00 0.00 0.00 99 1018.6
20260902073915 69 234 0.0 0.0 0.00 0.00 0.00 99 1018.2
20260902073306 69 234 0.0 0.0 0.00 0.00 0.00 99 1018.6
20260902072722 69 234 0.0 0.0 0.00 0.00 0.00 99 1018.6
20260902072145 69 236 0.0 0.0 0.00 0.00 0.00 99 1018.6
20260902070909 68 234 0.0 0.0 0.00 0.00 0.00 99 1018.6
20260902065706 68 229 0.0 0.0 0.00 0.00 0.00 99 1018.6
20260902065138 68 230 0.0 0.0 0.00 0.00 0.00 99 1018.2
20260902064506 68 232 0.0 0.0 0.00 0.00 0.00 99 1018.6
20260902063946 68 238 0.0 0.0 0.00 0.00 0.00 99 1018.6
20260902063330 68 236 0.0 0.0 0.00 0.00 0.00 99 1018.6
20260902060909 69 237 0.0 0.0 0.00 0.00 0.00 99 1018.6
20260902060343 69 235 0.0 0.0 0.00 0.00 0.00 99 1018.6
20260902055714 69 235 0.0 0.0 0.00 0.00 0.00 99 1018.6
20260902055125 69 235 0.0 0.0 0.00 0.00 0.00 99 1018.2
20260902054536 69 235 0.0 0.0 0.00 0.00 0.00 99 1018.6
20260902053929 69 235 0.0 0.0 0.00 0.00 0.00 99 1018.2
20260902053338 69 238 0.0 0.0 0.00 0.00 0.00 99 1018.2
20260902052123 69 230 0.0 0.0 0.00 0.00 0.00 99 1018.2
20260902051511 69 224 0.0 0.0 0.00 0.00 0.00 99 1018.2
20260902050907 69 232 0.0 0.0 0.00 0.00 0.00 99 1017.9
20260902050320 70 233 0.0 0.0 0.00 0.00 0.00 99 1018.2
20260902045729 70 234 0.0 0.0 0.00 0.00 0.00 99 1018.2
20260902045115 70 245 0.0 0.0 0.00 0.00 0.00 99 1018.2
20260902043942 70 234 0.0 0.0 0.00 0.00 0.00 99 1017.9
20260902043349 70 230 0.0 0.0 0.00 0.00 0.00 99 1018.2
20260902042748 70 236 0.0 0.0 0.00 0.00 0.00 99 1017.9
20260902042144 70 235 0.0 0.0 0.00 0.00 0.00 99 1017.9
20260902041539 70 233 0.0 0.0 0.00 0.00 0.00 99 1017.9
20260902040933 70 228 0.0 0.0 0.00 0.00 0.00 99 1017.9
20260902040333 70 230 0.0 0.0 0.00 0.00 0.00 99 1018.2
20260902035715 70 228 0.0 0.0 0.00 0.00 0.00 99 1017.9
20260902035111 70 232 0.0 0.0 0.00 0.00 0.00 99 1017.9
20260902034505 70 234 0.0 0.0 0.00 0.00 0.00 99 1018.2
20260902033906 70 234 0.0 0.0 0.00 0.00 0.00 99 1018.2
20260902033323 71 234 0.0 0.0 0.00 0.00 0.00 99 1017.9
20260902032117 71 236 0.0 0.0 0.00 0.00 0.00 99 1017.9
20260902031530 71 234 0.0 0.0 0.00 0.00 0.00 99 1017.9
20260902030914 71 236 0.0 0.0 0.00 0.00 0.00 99 1017.9
20260902025726 72 236 0.0 0.0 0.00 0.00 0.00 99 1017.9
20260902025144 72 236 0.0 0.0 0.00 0.00 0.00 99 1017.9
20260902024536 72 236 0.0 0.0 0.00 0.00 0.00 99 1017.9
20260902023948 72 237 0.0 0.0 0.00 0.00 0.00 99 1017.9
20260902023349 72 242 0.0 0.0 0.00 0.00 0.00 99 1017.9
20260902022717 72 233 0.0 0.0 0.00 0.00 0.00 99 1018.2
20260902022119 72 233 0.0 0.0 0.00 0.00 0.00 99 1017.9
20260902020938 72 222 0.0 0.0 0.00 0.00 0.00 99 1018.2
20260902020310 72 226 0.0 0.0 0.00 0.00 0.00 99 1017.9
20260902015123 72 234 0.0 0.0 0.00 0.00 0.00 99 1017.9
20260902014507 73 221 0.0 0.0 0.00 0.00 0.00 99 1017.6
20260902013906 73 233 0.0 0.0 0.00 0.00 0.00 99 1017.9
20260902013337 73 228 0.0 0.0 0.00 0.00 0.00 99 1017.9
20260902012738 73 234 0.0 0.0 0.00 0.00 0.00 99 1017.9
20260902012124 73 234 0.0 0.0 0.00 0.00 0.00 99 1017.9
20260902011532 74 234 0.0 0.0 0.00 0.00 0.00 99 1017.9
20260902010942 74 230 0.0 0.0 0.00 0.00 0.00 99 1017.6
20260902010322 74 230 0.0 0.0 0.00 0.00 0.00 99 1017.6
20260902005741 74 234 0.0 0.0 0.00 0.00 0.00 99 1017.6
20260902005121 74 234 0.0 0.0 0.00 0.00 0.00 99 1017.2
20260902004519 75 233 0.0 0.0 0.00 0.00 0.00 99 1017.2
20260902003908 75 233 0.0 0.0 0.00 0.00 0.00 99 1017.2
20260902003349 75 230 0.0 0.0 0.00 0.00 0.00 99 1017.2
20260902002718 76 232 0.0 0.0 0.00 0.00 0.00 99 1017.2
20260902002122 76 230 0.0 0.0 0.00 0.00 0.00 99 1017.6
20260902001528 76 229 0.0 0.0 0.00 0.00 0.00 99 1017.2
20260902000948 76 229 0.0 0.0 0.00 0.00 0.00 99 1017.2
20260902000315 76 234 0.0 0.0 0.00 0.00 0.00 99 1017.6
20260901235712 77 235 0.0 0.0 0.00 0.00 0.00 99 1017.2
20260901235130 77 235 0.0 0.0 0.00 0.00 0.00 99 1017.2
20260901234506 77 234 0.0 0.0 0.00 0.00 0.00 99 1017.2
20260901233934 78 234 0.0 0.0 0.00 0.00 0.00 98 1017.2
20260901233312 78 245 0.0 0.0 0.00 0.00 0.00 98 1017.2
20260901232707 78 243 0.0 0.0 0.00 0.00 0.00 97 1017.2
20260901232113 79 241 0.0 0.0 0.00 0.00 0.00 97 1017.2
20260901230931 80 237 0.0 0.0 0.00 0.00 0.00 95 1016.9
20260901225719 82 241 0.0 0.0 0.00 0.00 0.00 94 1017.2
20260901225118 83 255 0.0 0.0 0.00 0.00 0.00 93 1017.2
20260901224541 84 238 0.0 0.0 0.00 0.00 0.00 89 1017.2
20260901223905 85 250 0.0 0.0 0.00 0.00 0.00 87 1017.2
20260901222744 86 252 0.0 0.0 0.00 0.00 0.00 85 1017.2
20260901222123 87 245 0.0 0.0 0.00 0.00 0.00 83 1017.2
20260901221519 87 247 0.0 0.0 0.00 0.00 0.00 83 1017.2
20260901220937 87 255 0.0 0.0 0.00 0.00 0.00 82 1017.2
20260901220314 88 256 0.0 0.0 0.00 0.00 0.00 81 1017.6
20260901215708 88 259 0.0 0.0 0.00 0.00 0.00 81 1017.6
20260901215141 88 256 0.0 0.0 0.00 0.00 0.00 81 1017.6
20260901213934 89 235 0.0 0.0 0.00 0.00 0.00 83 1017.6
20260901213334 90 248 0.0 0.0 0.00 0.00 0.00 80 1017.6
20260901212705 90 254 0.0 0.0 0.00 0.00 0.00 81 1017.9
20260901211508 92 241 0.0 0.0 0.00 0.00 0.00 80 1017.9
20260901210914 92 223 0.0 0.0 0.00 0.00 0.00 79 1017.9
20260901210320 92 271 0.0 0.0 0.00 0.00 0.00 69 1017.9
20260901205735 92 133 0.0 2.0 0.00 0.00 0.00 65 1017.9
20260901205142 91 223 0.0 0.0 0.00 0.00 0.00 66 1017.9
20260901204528 91 250 0.0 0.0 0.00 0.00 0.00 72 1017.9
20260901203922 91 218 0.0 0.0 0.00 0.00 0.00 72 1017.9
20260901203314 91 237 0.0 0.0 0.00 0.00 0.00 71 1018.2
20260901202136 89 221 0.0 0.0 0.00 0.00 0.00 72 1017.9
20260901201524 88 219 0.0 0.0 0.00 0.00 0.00 74 1018.2
20260901200908 86 238 0.0 0.0 0.00 0.00 0.00 72 1018.2
20260901200323 85 224 0.0 0.0 0.00 0.00 0.00 78 1018.2
20260901195747 84 233 0.0 0.0 0.00 0.00 0.00 85 1018.2
20260901195146 84 255 0.0 0.0 0.00 0.00 0.00 86 1018.6
20260901194511 84 246 0.0 0.0 0.00 0.00 0.00 86 1018.6
20260901193915 85 230 0.0 0.0 0.00 0.00 0.00 87 1018.6
20260901193312 86 245 0.0 0.0 0.00 0.00 0.00 86 1018.6
20260901192710 87 245 0.0 0.0 0.00 0.00 0.00 85 1018.6
20260901191529 90 226 0.0 0.0 0.00 0.00 0.00 80 1018.6
20260901190909 91 255 0.0 0.0 0.00 0.00 0.00 82 1018.6
20260901190310 92 240 0.0 2.0 0.00 0.00 0.00 76 1018.6
20260901185716 92 245 0.0 0.0 0.00 0.00 0.00 64 1018.9
20260901185125 92 354 4.0 5.0 0.00 0.00 0.00 57 1018.6
20260901184513 92 229 0.0 0.0 0.00 0.00 0.00 66 1018.6
20260901183945 91 270 0.0 0.0 0.00 0.00 0.00 62 1018.6
20260901183325 91 215 3.0 5.0 0.00 0.00 0.00 67 1018.9
20260901182718 90 308 1.0 2.0 0.00 0.00 0.00 63 1018.9
20260901182138 90 243 2.0 2.0 0.00 0.00 0.00 65 1019.3
20260901180914 89 91 1.0 2.0 0.00 0.00 0.00 66 1019.3
20260901180342 89 226 0.0 0.0 0.00 0.00 0.00 67 1019.3
20260901175128 90 223 4.0 7.0 0.00 0.00 0.00 71 1019.3
20260901174519 90 241 4.0 5.0 0.00 0.00 0.00 67 1019.3